Satellite-Ground Cal/Val Region Overpasses Predictions

Prediction of Satellite NPP Overpassing Cal/Val Region: PacNW

Region Location: (Latitude: 10.00, Longitude: 139.50) to (Latitude: 22.70, Longitude: 165.60).

Table of predicted overpasses for the next 14.0 days since TLE Epoch: 7/13/2018
Interval Starting Time Starting Location Ending Time Ending Location
1 07/14/2018 02:39:06 ( 10.05, 159.98) 07/14/2018 02:42:41 ( 22.67, 156.97)
2 07/14/2018 15:10:59 ( 22.64, 157.22) 07/14/2018 15:14:34 ( 10.02, 154.22)
3 07/15/2018 02:20:04 ( 10.03, 164.74) 07/15/2018 02:23:39 ( 22.65, 161.74)
4 07/15/2018 14:51:56 ( 22.66, 161.98) 07/15/2018 14:55:31 ( 10.04, 158.98)
5 07/16/2018 03:42:31 ( 10.02, 144.13) 07/16/2018 03:46:07 ( 22.70, 141.11)
6 07/16/2018 14:34:14 ( 17.99, 165.60) 07/16/2018 14:36:30 ( 10.00, 163.73)
7 07/16/2018 16:14:24 ( 22.68, 141.37) 07/16/2018 16:16:35 ( 14.99, 139.51)
8 07/17/2018 03:23:30 ( 10.06, 148.88) 07/17/2018 03:27:05 ( 22.68, 145.88)
9 07/17/2018 15:55:21 ( 22.70, 146.14) 07/17/2018 15:58:57 ( 10.02, 143.12)
10 07/18/2018 03:04:27 ( 10.04, 153.65) 07/18/2018 03:08:02 ( 22.66, 150.64)
11 07/18/2018 15:36:20 ( 22.66, 150.89) 07/18/2018 15:39:55 ( 10.04, 147.88)
12 07/19/2018 02:45:25 ( 10.02, 158.41) 07/19/2018 02:49:01 ( 22.70, 155.39)
13 07/19/2018 15:17:17 ( 22.68, 155.65) 07/19/2018 15:20:52 ( 10.06, 152.65)
14 07/20/2018 02:26:23 ( 10.06, 163.16) 07/20/2018 02:29:58 ( 22.68, 160.16)
15 07/20/2018 14:58:15 ( 22.70, 160.42) 07/20/2018 15:01:51 ( 10.02, 157.40)
16 07/21/2018 02:10:10 ( 19.96, 165.59) 07/21/2018 02:10:56 ( 22.66, 164.92)
17 07/21/2018 03:48:51 ( 10.05, 142.55) 07/21/2018 03:52:26 ( 22.67, 139.55)
18 07/21/2018 14:39:14 ( 22.66, 165.17) 07/21/2018 14:42:49 ( 10.04, 162.16)
19 07/21/2018 16:20:44 ( 22.65, 139.79) 07/21/2018 16:21:03 ( 21.54, 139.51)
20 07/22/2018 03:29:48 ( 10.03, 147.31) 07/22/2018 03:33:23 ( 22.65, 144.31)
21 07/22/2018 16:01:41 ( 22.67, 144.56) 07/22/2018 16:05:16 ( 10.05, 141.55)
22 07/23/2018 03:10:46 ( 10.01, 152.08) 07/23/2018 03:14:22 ( 22.69, 149.06)
23 07/23/2018 15:42:39 ( 22.69, 149.32) 07/23/2018 15:46:15 ( 10.01, 146.30)
24 07/24/2018 02:51:44 ( 10.05, 156.83) 07/24/2018 02:55:19 ( 22.67, 153.82)
25 07/24/2018 15:23:37 ( 22.65, 154.07) 07/24/2018 15:27:12 ( 10.03, 151.07)
26 07/25/2018 02:32:42 ( 10.03, 161.59) 07/25/2018 02:36:17 ( 22.65, 158.59)
27 07/25/2018 15:04:35 ( 22.67, 158.83) 07/25/2018 15:08:10 ( 10.05, 155.83)
28 07/26/2018 02:14:35 ( 13.30, 165.60) 07/26/2018 02:17:15 ( 22.70, 163.34)
29 07/26/2018 03:55:09 ( 10.02, 140.98) 07/26/2018 03:56:57 ( 16.37, 139.51)
30 07/26/2018 14:45:32 ( 22.68, 163.60) 07/26/2018 14:49:08 ( 10.01, 160.58)
31 07/27/2018 03:36:07 ( 10.00, 145.74) 07/27/2018 03:39:43 ( 22.69, 142.73)
32 07/27/2018 14:29:48 ( 11.08, 165.59) 07/27/2018 14:30:06 ( 10.02, 165.34)


NCC Satellite Cal/Val Overpasses Prediction Service
